Time,TemperatureF,DewpointF,PressureIn,WindDirection,WindDirectionDegrees,WindSpeedMPH,WindSpeedGustMPH,Humidity,HourlyPrecipIn,Conditions,Clouds,dailyrainin,SoftwareType,DateUTC
2013-08-06 00:02:00,78.0,56.0,29.75,WNW,290,11.0,14.0,46,0.00,,,0.00,,2013-08-06 06:02:00,
2013-08-06 00:22:00,77.0,56.0,29.76,WNW,302,7.0,16.0,48,0.00,,,0.00,,2013-08-06 06:22:00,
2013-08-06 00:32:00,77.0,56.0,29.76,WNW,302,7.0,16.0,48,0.00,,,0.00,,2013-08-06 06:32:00,
2013-08-06 00:43:00,77.0,57.0,29.76,NW,322,10.0,18.0,50,0.00,,,0.00,,2013-08-06 06:43:00,
2013-08-06 00:52:00,76.0,57.0,29.75,West,277,11.0,13.0,51,0.00,,,0.00,,2013-08-06 06:52:00,
2013-08-06 01:01:00,76.0,57.0,29.75,West,277,11.0,13.0,51,0.00,,,0.00,,2013-08-06 07:01:00,
2013-08-06 01:12:00,76.0,57.0,29.75,West,271,7.0,15.0,52,0.00,,,0.00,,2013-08-06 07:12:00,
2013-08-06 01:22:00,75.0,57.0,29.75,West,273,8.0,12.0,54,0.00,,,0.00,,2013-08-06 07:22:00,
2013-08-06 01:32:00,75.0,57.0,29.75,West,273,8.0,12.0,54,0.00,,,0.00,,2013-08-06 07:32:00,
2013-08-06 01:43:00,74.0,58.0,29.74,West,265,8.0,11.0,57,0.00,,,0.00,,2013-08-06 07:43:00,
2013-08-06 01:53:00,74.0,59.0,29.73,West,272,10.0,13.0,59,0.00,,,0.00,,2013-08-06 07:53:00,
2013-08-06 02:01:00,74.0,59.0,29.73,West,272,10.0,13.0,59,0.00,,,0.00,,2013-08-06 08:01:00,
2013-08-06 02:11:00,74.0,59.0,29.73,WNW,290,12.0,16.0,59,0.00,,,0.00,,2013-08-06 08:11:00,
2013-08-06 02:21:00,73.0,58.0,29.73,WNW,290,11.0,15.0,60,0.00,,,0.00,,2013-08-06 08:21:00,
2013-08-06 02:33:00,73.0,58.0,29.73,WNW,290,11.0,15.0,60,0.00,,,0.00,,2013-08-06 08:33:00,
2013-08-06 02:43:00,73.0,58.0,29.73,West,279,9.0,12.0,60,0.00,,,0.00,,2013-08-06 08:43:00,
2013-08-06 02:52:00,72.0,58.0,29.74,West,277,11.0,13.0,62,0.00,,,0.00,,2013-08-06 08:52:00,
2013-08-06 03:01:00,72.0,58.0,29.74,West,277,11.0,13.0,62,0.00,,,0.00,,2013-08-06 09:01:00,
2013-08-06 03:11:00,72.0,59.0,29.74,West,281,11.0,14.0,63,0.00,,,0.00,,2013-08-06 09:11:00,
2013-08-06 03:22:00,71.0,59.0,29.73,WNW,284,12.0,14.0,65,0.00,,,0.00,,2013-08-06 09:22:00,
2013-08-06 03:32:00,71.0,59.0,29.73,WNW,284,12.0,14.0,65,0.00,,,0.00,,2013-08-06 09:32:00,
2013-08-06 03:43:00,71.0,58.0,29.73,WNW,294,15.0,19.0,63,0.00,,,0.00,,2013-08-06 09:43:00,
2013-08-06 03:52:00,71.0,58.0,29.73,WNW,292,9.0,16.0,64,0.00,,,0.00,,2013-08-06 09:52:00,
2013-08-06 04:01:00,71.0,58.0,29.73,WNW,292,9.0,16.0,64,0.00,,,0.00,,2013-08-06 10:01:00,
2013-08-06 04:11:00,71.0,58.0,29.74,West,259,7.0,11.0,63,0.00,,,0.00,,2013-08-06 10:11:00,
2013-08-06 04:22:00,70.0,57.0,29.74,WSW,253,6.0,9.0,64,0.00,,,0.00,,2013-08-06 10:22:00,
2013-08-06 04:32:00,70.0,57.0,29.74,WSW,253,6.0,9.0,64,0.00,,,0.00,,2013-08-06 10:32:00,
2013-08-06 04:43:00,70.0,57.0,29.74,WSW,253,7.0,14.0,63,0.00,,,0.00,,2013-08-06 10:43:00,
2013-08-06 04:52:00,70.0,57.0,29.73,West,260,7.0,11.0,63,0.00,,,0.00,,2013-08-06 10:52:00,
2013-08-06 05:01:00,70.0,57.0,29.73,West,260,7.0,11.0,63,0.00,,,0.00,,2013-08-06 11:01:00,
2013-08-06 05:11:00,70.0,56.0,29.74,West,262,5.0,11.0,61,0.00,,,0.00,,2013-08-06 11:11:00,
2013-08-06 05:22:00,70.0,57.0,29.74,WSW,248,4.0,9.0,63,0.00,,,0.00,,2013-08-06 11:22:00,
2013-08-06 05:32:00,70.0,57.0,29.74,WSW,248,4.0,9.0,63,0.00,,,0.00,,2013-08-06 11:32:00,
2013-08-06 05:43:00,69.0,56.0,29.74,SSW,207,7.0,8.0,64,0.00,,,0.00,,2013-08-06 11:43:00,
2013-08-06 05:53:00,69.0,56.0,29.74,SSW,207,5.0,7.0,64,0.00,,,0.00,,2013-08-06 11:53:00,
2013-08-06 06:01:00,69.0,56.0,29.74,SSW,207,5.0,7.0,64,0.00,,,0.00,,2013-08-06 12:01:00,
2013-08-06 06:11:00,69.0,56.0,29.75,SSW,204,5.0,7.0,64,0.00,,,0.00,,2013-08-06 12:11:00,
2013-08-06 06:22:00,69.0,56.0,29.75,SSW,202,8.0,9.0,63,0.00,,,0.00,,2013-08-06 12:22:00,
2013-08-06 06:32:00,69.0,56.0,29.75,SSW,202,8.0,9.0,63,0.00,,,0.00,,2013-08-06 12:32:00,
2013-08-06 06:43:00,69.0,56.0,29.75,SSW,202,8.0,10.0,63,0.00,,,0.00,,2013-08-06 12:43:00,
2013-08-06 06:52:00,69.0,56.0,29.76,SW,229,12.0,13.0,63,0.00,,,0.00,,2013-08-06 12:52:00,
2013-08-06 07:01:00,69.0,56.0,29.76,SW,229,12.0,13.0,63,0.00,,,0.00,,2013-08-06 13:01:00,
2013-08-06 07:11:00,70.0,56.0,29.76,SW,217,8.0,12.0,62,0.00,,,0.00,,2013-08-06 13:11:00,
2013-08-06 07:22:00,70.0,57.0,29.77,SW,223,12.0,14.0,63,0.00,,,0.00,,2013-08-06 13:22:00,
2013-08-06 07:32:00,70.0,57.0,29.77,SW,223,12.0,14.0,63,0.00,,,0.00,,2013-08-06 13:32:00,
2013-08-06 07:42:00,70.0,56.0,29.77,SW,232,9.0,14.0,62,0.00,,,0.00,,2013-08-06 13:42:00,
2013-08-06 08:01:00,70.0,56.0,29.77,WSW,240,12.0,14.0,61,0.00,,,0.00,,2013-08-06 14:01:00,
2013-08-06 08:11:00,70.0,56.0,29.78,SW,227,12.0,14.0,62,0.00,,,0.00,,2013-08-06 14:11:00,
2013-08-06 08:22:00,70.0,57.0,29.78,SW,222,12.0,14.0,63,0.00,,,0.00,,2013-08-06 14:22:00,
2013-08-06 08:32:00,70.0,57.0,29.78,SW,222,12.0,14.0,63,0.00,,,0.00,,2013-08-06 14:32:00,
2013-08-06 08:42:00,70.0,57.0,29.79,SW,218,12.0,14.0,63,0.00,,,0.00,,2013-08-06 14:42:00,
2013-08-06 09:02:00,70.0,56.0,29.79,SW,230,14.0,16.0,62,0.00,,,0.00,,2013-08-06 15:02:00,
2013-08-06 09:11:00,70.0,56.0,29.79,WSW,246,10.0,14.0,62,0.00,,,0.00,,2013-08-06 15:11:00,
2013-08-06 09:22:00,71.0,57.0,29.80,SW,234,12.0,15.0,61,0.00,,,0.00,,2013-08-06 15:22:00,
2013-08-06 09:33:00,71.0,57.0,29.80,SW,234,12.0,15.0,61,0.00,,,0.00,,2013-08-06 15:33:00,
2013-08-06 09:44:00,71.0,56.0,29.80,SW,225,13.0,15.0,60,0.00,,,0.00,,2013-08-06 15:44:00,
2013-08-06 09:52:00,72.0,57.0,29.80,SW,221,13.0,17.0,60,0.00,,,0.00,,2013-08-06 15:52:00,
2013-08-06 10:02:00,72.0,57.0,29.80,SW,221,13.0,17.0,60,0.00,,,0.00,,2013-08-06 16:02:00,
2013-08-06 10:11:00,73.0,57.0,29.80,SW,216,14.0,19.0,58,0.00,,,0.00,,2013-08-06 16:11:00,
2013-08-06 10:22:00,74.0,57.0,29.80,SW,227,14.0,21.0,56,0.00,,,0.00,,2013-08-06 16:22:00,
2013-08-06 10:32:00,74.0,57.0,29.80,SW,227,14.0,21.0,56,0.00,,,0.00,,2013-08-06 16:32:00,
2013-08-06 10:43:00,75.0,57.0,29.80,SSW,213,12.0,18.0,54,0.00,,,0.00,,2013-08-06 16:43:00,
2013-08-06 11:02:00,76.0,58.0,29.80,West,259,13.0,20.0,53,0.00,,,0.00,,2013-08-06 17:02:00,
2013-08-06 11:11:00,76.0,57.0,29.80,WSW,242,14.0,19.0,52,0.00,,,0.00,,2013-08-06 17:11:00,
2013-08-06 11:21:00,77.0,57.0,29.80,SW,235,13.0,20.0,51,0.00,,,0.00,,2013-08-06 17:21:00,
2013-08-06 11:32:00,77.0,57.0,29.80,SW,235,13.0,20.0,51,0.00,,,0.00,,2013-08-06 17:32:00,
2013-08-06 11:44:00,77.0,57.0,29.80,WSW,239,12.0,19.0,50,0.00,,,0.00,,2013-08-06 17:44:00,
2013-08-06 11:52:00,78.0,57.0,29.81,West,272,9.0,19.0,49,0.00,,,0.00,,2013-08-06 17:52:00,
2013-08-06 12:01:00,78.0,57.0,29.81,West,272,9.0,19.0,49,0.00,,,0.00,,2013-08-06 18:01:00,
2013-08-06 12:11:00,79.0,58.0,29.80,SW,228,7.0,14.0,48,0.00,,,0.00,,2013-08-06 18:11:00,
2013-08-06 12:22:00,80.0,58.0,29.80,WSW,250,11.0,17.0,47,0.00,,,0.00,,2013-08-06 18:22:00,
2013-08-06 12:32:00,80.0,58.0,29.80,WSW,250,11.0,17.0,47,0.00,,,0.00,,2013-08-06 18:32:00,
2013-08-06 12:43:00,81.0,58.0,29.80,SW,228,9.0,16.0,45,0.00,,,0.00,,2013-08-06 18:43:00,
2013-08-06 12:52:00,81.0,56.0,29.80,SW,236,11.0,17.0,43,0.00,,,0.00,,2013-08-06 18:52:00,
2013-08-06 13:01:00,81.0,56.0,29.80,SW,236,11.0,17.0,43,0.00,,,0.00,,2013-08-06 19:01:00,
2013-08-06 13:11:00,81.0,55.0,29.79,West,263,12.0,24.0,41,0.00,,,0.00,,2013-08-06 19:11:00,
2013-08-06 13:21:00,82.0,55.0,29.78,SSW,210,13.0,18.0,39,0.00,,,0.00,,2013-08-06 19:21:00,
2013-08-06 13:32:00,82.0,55.0,29.78,SSW,210,13.0,18.0,39,0.00,,,0.00,,2013-08-06 19:32:00,
2013-08-06 13:42:00,82.0,55.0,29.78,SSW,210,13.0,18.0,39,0.00,,,0.00,,2013-08-06 19:42:00,
2013-08-06 13:52:00,83.0,50.0,29.78,West,280,10.0,23.0,32,0.00,,,0.00,,2013-08-06 19:52:00,
2013-08-06 14:01:00,83.0,50.0,29.78,West,280,10.0,23.0,32,0.00,,,0.00,,2013-08-06 20:01:00,
2013-08-06 14:11:00,84.0,51.0,29.77,West,281,15.0,24.0,32,0.00,,,0.00,,2013-08-06 20:11:00,
2013-08-06 14:22:00,86.0,51.0,29.76,West,277,15.0,22.0,30,0.00,,,0.00,,2013-08-06 20:22:00,
2013-08-06 14:32:00,86.0,51.0,29.76,West,277,15.0,22.0,30,0.00,,,0.00,,2013-08-06 20:32:00,
2013-08-06 14:44:00,86.0,50.0,29.76,SW,223,15.0,21.0,29,0.00,,,0.00,,2013-08-06 20:44:00,
2013-08-06 14:52:00,87.0,50.0,29.75,WSW,240,14.0,24.0,28,0.00,,,0.00,,2013-08-06 20:52:00,
2013-08-06 15:01:00,87.0,50.0,29.75,WSW,240,14.0,24.0,28,0.00,,,0.00,,2013-08-06 21:01:00,
2013-08-06 15:11:00,86.0,51.0,29.74,SW,235,19.0,28.0,30,0.00,,,0.00,,2013-08-06 21:11:00,
2013-08-06 15:22:00,86.0,50.0,29.74,WNW,290,21.0,30.0,29,0.00,,,0.00,,2013-08-06 21:22:00,
2013-08-06 15:32:00,86.0,50.0,29.74,WNW,290,21.0,30.0,29,0.00,,,0.00,,2013-08-06 21:32:00,
2013-08-06 15:43:00,86.0,50.0,29.74,WSW,242,18.0,25.0,29,0.00,,,0.00,,2013-08-06 21:43:00,
2013-08-06 15:52:00,86.0,50.0,29.74,WNW,284,13.0,29.0,29,0.00,,,0.00,,2013-08-06 21:52:00,
2013-08-06 16:01:00,86.0,50.0,29.74,WNW,284,13.0,29.0,29,0.00,,,0.00,,2013-08-06 22:01:00,
2013-08-06 16:11:00,86.0,49.0,29.74,SW,236,20.0,26.0,28,0.00,,,0.00,,2013-08-06 22:11:00,
2013-08-06 16:22:00,86.0,48.0,29.73,West,265,24.0,30.0,27,0.00,,,0.00,,2013-08-06 22:22:00,
2013-08-06 16:32:00,86.0,48.0,29.73,West,265,24.0,30.0,27,0.00,,,0.00,,2013-08-06 22:32:00,
2013-08-06 16:43:00,86.0,50.0,29.73,West,274,19.0,30.0,29,0.00,,,0.00,,2013-08-06 22:43:00,
2013-08-06 16:52:00,87.0,50.0,29.72,West,268,19.0,27.0,28,0.00,,,0.00,,2013-08-06 22:52:00,
2013-08-06 17:01:00,87.0,50.0,29.72,West,268,19.0,27.0,28,0.00,,,0.00,,2013-08-06 23:01:00,
2013-08-06 17:11:00,87.0,49.0,29.72,WNW,288,19.0,29.0,27,0.00,,,0.00,,2013-08-06 23:11:00,
2013-08-06 17:22:00,87.0,50.0,29.72,WNW,287,19.0,26.0,28,0.00,,,0.00,,2013-08-06 23:22:00,
2013-08-06 17:32:00,87.0,50.0,29.72,WNW,287,19.0,26.0,28,0.00,,,0.00,,2013-08-06 23:32:00,
2013-08-06 17:43:00,87.0,49.0,29.72,WNW,282,18.0,24.0,27,0.00,,,0.00,,2013-08-06 23:43:00,
2013-08-06 17:52:00,86.0,48.0,29.71,West,272,21.0,31.0,27,0.00,,,0.00,,2013-08-06 23:52:00,
2013-08-06 18:01:00,86.0,48.0,29.71,West,272,21.0,31.0,27,0.00,,,0.00,,2013-08-07 00:01:00,
2013-08-06 18:11:00,85.0,49.0,29.71,West,269,20.0,24.0,29,0.00,,,0.00,,2013-08-07 00:11:00,
2013-08-06 18:21:00,86.0,49.0,29.71,WSW,257,18.0,22.0,28,0.00,,,0.00,,2013-08-07 00:21:00,
2013-08-06 18:32:00,86.0,49.0,29.71,WSW,257,18.0,22.0,28,0.00,,,0.00,,2013-08-07 00:32:00,
2013-08-06 18:43:00,85.0,48.0,29.70,WNW,295,23.0,28.0,28,0.00,,,0.00,,2013-08-07 00:43:00,
2013-08-06 18:52:00,85.0,48.0,29.71,West,261,18.0,23.0,28,0.00,,,0.00,,2013-08-07 00:52:00,
2013-08-06 19:01:00,85.0,48.0,29.71,West,261,18.0,23.0,28,0.00,,,0.00,,2013-08-07 01:01:00,
2013-08-06 19:11:00,86.0,49.0,29.71,WNW,287,18.0,25.0,28,0.00,,,0.00,,2013-08-07 01:11:00,
2013-08-06 19:21:00,85.0,49.0,29.72,West,270,15.0,21.0,29,0.00,,,0.00,,2013-08-07 01:21:00,
2013-08-06 19:32:00,85.0,49.0,29.72,West,270,15.0,21.0,29,0.00,,,0.00,,2013-08-07 01:32:00,
2013-08-06 19:43:00,85.0,49.0,29.72,West,275,13.0,19.0,29,0.00,,,0.00,,2013-08-07 01:43:00,
2013-08-06 19:52:00,84.0,48.0,29.72,WNW,286,16.0,23.0,29,0.00,,,0.00,,2013-08-07 01:52:00,
2013-08-06 20:02:00,84.0,48.0,29.72,WNW,286,16.0,23.0,29,0.00,,,0.00,,2013-08-07 02:02:00,
2013-08-06 20:11:00,84.0,49.0,29.72,WNW,285,13.0,19.0,30,0.00,,,0.00,,2013-08-07 02:11:00,
2013-08-06 20:22:00,83.0,49.0,29.72,WNW,285,15.0,23.0,31,0.00,,,0.00,,2013-08-07 02:22:00,
2013-08-06 20:33:00,83.0,49.0,29.72,WNW,285,15.0,23.0,31,0.00,,,0.00,,2013-08-07 02:33:00,
2013-08-06 20:43:00,83.0,51.0,29.72,West,274,14.0,18.0,33,0.00,,,0.00,,2013-08-07 02:43:00,
2013-08-06 21:01:00,82.0,51.0,29.72,WNW,283,14.0,20.0,34,0.00,,,0.00,,2013-08-07 03:01:00,
2013-08-06 21:11:00,82.0,52.0,29.73,WNW,301,14.0,17.0,35,0.00,,,0.00,,2013-08-07 03:11:00,
2013-08-06 21:22:00,81.0,52.0,29.74,NW,306,17.0,21.0,36,0.00,,,0.00,,2013-08-07 03:22:00,
2013-08-06 21:32:00,81.0,52.0,29.74,NW,306,17.0,21.0,36,0.00,,,0.00,,2013-08-07 03:32:00,
2013-08-06 21:43:00,81.0,52.0,29.74,NW,304,22.0,27.0,37,0.00,,,0.00,,2013-08-07 03:43:00,
2013-08-06 21:52:00,78.0,54.0,29.75,NW,312,16.0,27.0,44,0.00,,,0.00,,2013-08-07 03:52:00,
2013-08-06 22:01:00,78.0,54.0,29.75,NW,312,16.0,27.0,44,0.00,,,0.00,,2013-08-07 04:01:00,
2013-08-06 22:11:00,78.0,55.0,29.76,NW,323,16.0,24.0,45,0.00,,,0.00,,2013-08-07 04:11:00,
2013-08-06 22:21:00,78.0,55.0,29.76,NW,323,16.0,24.0,45,0.00,,,0.00,,2013-08-07 04:21:00,
2013-08-06 22:33:00,78.0,55.0,29.76,NW,323,16.0,24.0,45,0.00,,,0.00,,2013-08-07 04:33:00,
2013-08-06 22:43:00,77.0,55.0,29.77,NW,313,17.0,24.0,47,0.00,,,0.00,,2013-08-07 04:43:00,
2013-08-06 22:52:00,76.0,55.0,29.77,WNW,303,17.0,25.0,48,0.00,,,0.00,,2013-08-07 04:52:00,
2013-08-06 23:02:00,76.0,55.0,29.77,WNW,303,17.0,25.0,48,0.00,,,0.00,,2013-08-07 05:02:00,
2013-08-06 23:11:00,76.0,55.0,29.78,NW,311,18.0,26.0,48,0.00,,,0.00,,2013-08-07 05:11:00,
2013-08-06 23:22:00,75.0,55.0,29.78,WNW,303,20.0,26.0,50,0.00,,,0.00,,2013-08-07 05:22:00,
2013-08-06 23:32:00,75.0,55.0,29.78,WNW,303,20.0,26.0,50,0.00,,,0.00,,2013-08-07 05:32:00,
2013-08-06 23:43:00,75.0,56.0,29.78,WNW,301,17.0,21.0,51,0.00,,,0.00,,2013-08-07 05:43:00,
2013-08-06 23:52:00,75.0,56.0,29.79,NW,312,15.0,21.0,51,0.00,,,0.00,,2013-08-07 05:52:00,